When you browse on this site, cookies collect data to enhance your experience and personalize the content and advertising you see.
Visit our Privacy Policy to learn more. By continuing to use the site, you agree to this use of cookies and data.
  • En España
  • Lista de países
  • Para 7 días
  • Temperatura del agua
  • Mapa Satelital
  • El tiempo en el mapa
  • Informadores
  • user-avatar
    Iniciar sesión

    Tiempo cada hora Kostanaj

    Hoy, 25 Junio, Martes

    Tiempo Temperatura Precipitaciones Viento Presión Humedad
    00:00 +23°C° 0.3 mm 1 mps 745 mmHg 81%
    01:00 +22°C° 0.3 mm 1 mps 745 mmHg 82%
    02:00 +22°C° 0.4 mm 1 mps 745 mmHg 83%
    03:00 +22°C° 0.4 mm 1 mps 745 mmHg 84%
    04:00 +22°C° 0 mm 1 mps 745 mmHg 82%
    05:00 +23°C° 0.1 mm 1 mps 745 mmHg 77%
    06:00 +25°C° 0.1 mm 2 mps 745 mmHg 73%
    07:00 +26°C° 0.1 mm 2 mps 744 mmHg 68%
    08:00 +28°C° 0 mm 3 mps 744 mmHg 61%
    09:00 +29°C° 0 mm 3 mps 744 mmHg 55%
    10:00 +32°C° 0 mm 4 mps 744 mmHg 47%
    11:00 +33°C° 0 mm 4 mps 744 mmHg 46%
    12:00 +33°C° 0 mm 5 mps 743 mmHg 45%
    13:00 +34°C° 0 mm 5 mps 743 mmHg 44%
    14:00 +33°C° 0.2 mm 5 mps 743 mmHg 46%
    15:00 +32°C° 0.2 mm 5 mps 742 mmHg 48%
    16:00 +32°C° 0.2 mm 5 mps 742 mmHg 50%
    17:00 +28°C° 2.1 mm 6 mps 742 mmHg 62%
    18:00 +24°C° 2.1 mm 7 mps 742 mmHg 73%
    19:00 +21°C° 2.1 mm 8 mps 742 mmHg 84%
    20:00 +21°C° 0.6 mm 6 mps 742 mmHg 87%
    21:00 +20°C° 0.6 mm 4 mps 743 mmHg 89%
    22:00 +19°C° 0.6 mm 3 mps 743 mmHg 91%
    23:00 +19°C° 0 mm 3 mps 743 mmHg 91%

    Mañana, 26 Junio, Miércoles

    Tiempo Temperatura Precipitaciones Viento Presión Humedad
    00:00 +18°C° 0 mm 3 mps 743 mmHg 92%
    01:00 +18°C° 0 mm 4 mps 743 mmHg 92%
    02:00 +17°C° 0 mm 4 mps 743 mmHg 93%
    03:00 +15°C° 0 mm 5 mps 744 mmHg 93%
    04:00 +15°C° 0 mm 5 mps 744 mmHg 94%
    05:00 +15°C° 0 mm 5 mps 744 mmHg 90%
    06:00 +15°C° 0 mm 5 mps 745 mmHg 86%
    07:00 +15°C° 0 mm 5 mps 745 mmHg 82%
    08:00 +15°C° 0 mm 5 mps 745 mmHg 80%
    09:00 +15°C° 0 mm 5 mps 745 mmHg 78%
    10:00 +16°C° 0 mm 5 mps 745 mmHg 75%
    11:00 +17°C° 0 mm 4 mps 745 mmHg 72%
    12:00 +18°C° 0 mm 4 mps 746 mmHg 69%
    13:00 +19°C° 0 mm 3 mps 746 mmHg 65%
    14:00 +19°C° 0 mm 3 mps 746 mmHg 63%
    15:00 +20°C° 0 mm 3 mps 746 mmHg 61%
    16:00 +20°C° 0 mm 2 mps 746 mmHg 59%
    17:00 +20°C° 0.1 mm 2 mps 745 mmHg 63%
    18:00 +19°C° 0.1 mm 2 mps 745 mmHg 67%
    19:00 +19°C° 0.1 mm 2 mps 745 mmHg 70%
    20:00 +17°C° 0.1 mm 2 mps 745 mmHg 76%
    21:00 +16°C° 0.1 mm 2 mps 745 mmHg 81%
    22:00 +13°C° 0.1 mm 3 mps 745 mmHg 87%
    23:00 +13°C° 0.1 mm 3 mps 745 mmHg 87%

    Pasado mañana, 27 Junio, Jueves

    Tiempo Temperatura Precipitaciones Viento Presión Humedad
    00:00 +13°C° 0.1 mm 3 mps 745 mmHg 87%
    01:00 +13°C° 0.1 mm 3 mps 745 mmHg 87%
    02:00 +12°C° 0 mm 3 mps 745 mmHg 89%
    03:00 +11°C° 0 mm 3 mps 745 mmHg 92%
    04:00 +11°C° 0 mm 3 mps 744 mmHg 95%
    05:00 +12°C° 0 mm 3 mps 744 mmHg 90%
    06:00 +13°C° 0 mm 4 mps 744 mmHg 86%
    07:00 +14°C° 0 mm 4 mps 744 mmHg 82%
    08:00 +15°C° 0 mm 4 mps 744 mmHg 76%
    09:00 +17°C° 0 mm 4 mps 744 mmHg 71%
    10:00 +18°C° 0 mm 4 mps 744 mmHg 65%
    11:00 +18°C° 0.1 mm 4 mps 743 mmHg 61%
    12:00 +19°C° 0.1 mm 4 mps 743 mmHg 58%
    13:00 +19°C° 0.1 mm 4 mps 743 mmHg 55%
    14:00 +19°C° 0.2 mm 4 mps 743 mmHg 56%
    15:00 +19°C° 0.2 mm 4 mps 743 mmHg 58%
    16:00 +17°C° 0.2 mm 5 mps 743 mmHg 60%
    17:00 +17°C° 0 mm 5 mps 743 mmHg 64%
    18:00 +16°C° 0 mm 5 mps 743 mmHg 67%
    19:00 +15°C° 0 mm 5 mps 743 mmHg 71%
    20:00 +14°C° 0 mm 4 mps 743 mmHg 74%
    21:00 +13°C° 0 mm 4 mps 743 mmHg 77%
    22:00 +12°C° 0 mm 3 mps 743 mmHg 80%
    23:00 +11°C° 0 mm 3 mps 743 mmHg 81%

    28 Junio, Viernes

    Tiempo Temperatura Precipitaciones Viento Presión Humedad
    00:00 +11°C° 0 mm 3 mps 743 mmHg 81%
    01:00 +11°C° 0 mm 3 mps 743 mmHg 81%
    02:00 +10°C° 0 mm 3 mps 743 mmHg 82%
    03:00 +10°C° 0 mm 2 mps 743 mmHg 84%
    04:00 +9°C° 0 mm 2 mps 743 mmHg 85%
    05:00 +12°C° 0 mm 2 mps 743 mmHg 80%
    06:00 +12°C° 0 mm 3 mps 743 mmHg 76%
    07:00 +13°C° 0 mm 3 mps 744 mmHg 71%
    08:00 +14°C° 0 mm 3 mps 744 mmHg 66%
    09:00 +15°C° 0 mm 4 mps 744 mmHg 61%
    10:00 +18°C° 0 mm 4 mps 744 mmHg 56%
    11:00 +18°C° 0 mm 4 mps 744 mmHg 55%
    12:00 +18°C° 0 mm 3 mps 744 mmHg 55%
    13:00 +18°C° 0 mm 3 mps 744 mmHg 54%
    14:00 +19°C° 0 mm 3 mps 744 mmHg 53%
    15:00 +19°C° 0 mm 3 mps 744 mmHg 52%
    16:00 +20°C° 0 mm 3 mps 745 mmHg 50%
    17:00 +19°C° 0 mm 3 mps 745 mmHg 56%
    18:00 +18°C° 0 mm 2 mps 745 mmHg 61%
    19:00 +18°C° 0 mm 2 mps 745 mmHg 67%
    20:00 +16°C° 0 mm 2 mps 745 mmHg 71%
    21:00 +15°C° 0 mm 2 mps 745 mmHg 74%
    22:00 +13°C° 0 mm 2 mps 746 mmHg 78%
    23:00 +13°C° 0 mm 2 mps 746 mmHg 81%

    29 Junio, Sábado

    Tiempo Temperatura Precipitaciones Viento Presión Humedad
    00:00 +12°C° 0 mm 2 mps 746 mmHg 83%
    01:00 +12°C° 0 mm 2 mps 746 mmHg 86%
    02:00 +12°C° 0 mm 2 mps 746 mmHg 87%
    03:00 +10°C° 0 mm 2 mps 747 mmHg 89%
    04:00 +10°C° 0 mm 2 mps 747 mmHg 90%
    05:00 +13°C° 0 mm 2 mps 747 mmHg 83%
    06:00 +15°C° 0 mm 2 mps 747 mmHg 76%
    07:00 +16°C° 0 mm 2 mps 747 mmHg 69%
    08:00 +18°C° 0 mm 2 mps 748 mmHg 63%
    09:00 +19°C° 0 mm 2 mps 748 mmHg 57%
    10:00 +20°C° 0 mm 2 mps 748 mmHg 50%
    11:00 +21°C° 0 mm 2 mps 748 mmHg 48%
    12:00 +23°C° 0 mm 2 mps 748 mmHg 45%
    13:00 +24°C° 0 mm 2 mps 747 mmHg 42%
    14:00 +24°C° 0 mm 2 mps 747 mmHg 42%
    15:00 +24°C° 0 mm 2 mps 747 mmHg 42%
    16:00 +24°C° 0 mm 2 mps 747 mmHg 42%
    17:00 +23°C° 0 mm 2 mps 747 mmHg 47%
    18:00 +21°C° 0 mm 3 mps 747 mmHg 52%
    19:00 +20°C° 0 mm 3 mps 747 mmHg 57%
    20:00 +19°C° 0 mm 3 mps 747 mmHg 59%
    21:00 +18°C° 0 mm 3 mps 747 mmHg 61%
    22:00 +16°C° 0 mm 3 mps 747 mmHg 63%
    23:00 +16°C° 0 mm 3 mps 747 mmHg 64%

    30 Junio, Domingo

    Tiempo Temperatura Precipitaciones Viento Presión Humedad
    00:00 +14°C° 0 mm 3 mps 747 mmHg 66%
    01:00 +14°C° 0 mm 3 mps 747 mmHg 68%
    02:00 +13°C° 0 mm 3 mps 747 mmHg 69%
    03:00 +13°C° 0 mm 3 mps 747 mmHg 70%
    04:00 +14°C° 0 mm 2 mps 747 mmHg 71%
    05:00 +15°C° 0 mm 2 mps 747 mmHg 67%
    06:00 +17°C° 0 mm 3 mps 747 mmHg 63%
    07:00 +19°C° 0 mm 3 mps 747 mmHg 58%
    08:00 +20°C° 0 mm 3 mps 747 mmHg 53%
    09:00 +22°C° 0 mm 3 mps 747 mmHg 48%
    10:00 +24°C° 0 mm 3 mps 747 mmHg 43%
    11:00 +25°C° 0 mm 2 mps 747 mmHg 41%
    12:00 +25°C° 0 mm 2 mps 747 mmHg 39%
    13:00 +26°C° 0 mm 2 mps 746 mmHg 37%
    14:00 +26°C° 0 mm 2 mps 746 mmHg 36%
    15:00 +27°C° 0 mm 2 mps 746 mmHg 36%
    16:00 +27°C° 0 mm 1 mps 746 mmHg 36%
    17:00 +26°C° 0 mm 2 mps 746 mmHg 41%
    18:00 +25°C° 0 mm 2 mps 746 mmHg 46%
    19:00 +24°C° 0 mm 2 mps 746 mmHg 52%
    20:00 +21°C° 0 mm 2 mps 746 mmHg 54%
    21:00 +20°C° 0 mm 2 mps 746 mmHg 56%
    22:00 +18°C° 0 mm 2 mps 746 mmHg 59%
    23:00 +18°C° 0 mm 2 mps 746 mmHg 62%
    Mostrar más